Location: Epalinges
(46.5518°N, 6.6683°E)
Time: 18:48:50
(UTC+00:00)

Spot 1 - Pass Details

Date: 20 June 2021
Orbit: 575 x 777 km, 98.7° (Epoch: 02 August)

Event Time Altitude Azimuth Distance (km) Brightness Sun altitude
Rises 02:28:24 0° 166° (SSE) 3,228 7.4 -9.8°
Reaches altitude 10° 02:30:44 10° 167° (SSE) 2,292 6.6 -9.5°
Maximum altitude 02:35:48 82° 255° (WSW) 756 4.4 -9.0°
Drops below altitude 10° 02:40:42 10° 344° (NNW) 2,210 7.3 -8.4°
Sets 02:42:55 0° 345° (NNW) 3,104 8.1 -8.1°
